FW3854 Weather Reports


time (UTC)temp
C
wind
direction
speed
KPH
gust
KPH
rain 1hr
cm
rain 24hr
cm
rain mn
cm
humidity
%
barometer
mb
20260507231516 15 296 4.8 12.9 0.00 0.03 0.03 44 1006.7
20260507231057 15 324 4.8 17.7 0.00 0.03 0.03 44 1006.6
20260507230535 15 327 8.0 17.7 0.00 0.03 0.03 43 1006.6
20260507230042 16 312 9.7 16.1 0.00 0.03 0.03 43 1006.5
20260507225523 16 308 9.7 20.9 0.00 0.03 0.03 42 1006.5
20260507225100 16 284 8.0 20.9 0.00 0.03 0.03 42 1006.5
20260507224501 16 298 6.4 17.7 0.00 0.03 0.03 41 1006.1
20260507224043 16 303 9.7 17.7 0.00 0.03 0.03 41 1006.2
20260507223521 16 306 3.2 12.9 0.00 0.03 0.03 42 1006.1
20260507223041 16 297 6.4 16.1 0.00 0.03 0.03 41 1006.1
20260507222515 16 258 9.7 16.1 0.00 0.03 0.03 40 1006.0
20260507222057 17 296 8.0 14.5 0.00 0.03 0.03 40 1006.0
20260507221511 17 289 1.6 9.7 0.00 0.03 0.03 41 1005.8
20260507221057 17 292 4.8 9.7 0.00 0.03 0.03 41 1005.7
20260507220534 17 293 3.2 14.5 0.00 0.03 0.03 41 1005.8
20260507220048 17 291 8.0 14.5 0.00 0.03 0.03 42 1005.7
20260507215530 17 266 6.4 17.7 0.00 0.03 0.03 41 1005.7
20260507215004 17 287 8.0 24.1 0.00 0.03 0.03 40 1005.7
20260507214521 17 276 8.0 22.5 0.00 0.03 0.03 40 1005.5
20260507214100 17 310 6.4 16.1 0.00 0.03 0.03 40 1005.5
20260507213538 17 268 4.8 17.7 0.00 0.03 0.03 39 1005.4
20260507213056 17 310 8.0 19.3 0.00 0.03 0.03 39 1005.4
20260507212533 18 293 8.0 16.1 0.00 0.03 0.03 41 1005.3
20260507212012 17 318 3.2 12.9 0.00 0.03 0.03 40 1005.3
20260507211530 18 301 6.4 12.9 0.00 0.03 0.03 38 1005.4
20260507211008 18 303 3.2 9.7 0.00 0.03 0.03 39 1005.2
20260507210549 18 293 6.4 11.3 0.00 0.03 0.03 39 1005.1
20260507210055 17 283 4.8 14.5 0.00 0.03 0.03 40 1005.1
20260507205534 17 321 3.2 16.1 0.00 0.03 0.03 40 1005.2
20260507205013 17 254 8.0 17.7 0.00 0.03 0.03 41 1005.2
20260507204527 17 344 6.4 16.1 0.00 0.03 0.03 40 1005.1
20260507204007 18 293 9.7 27.4 0.00 0.03 0.03 39 1005.4
20260507203548 18 301 8.0 27.4 0.00 0.03 0.03 41 1005.2
20260507203053 18 301 8.0 16.1 0.00 0.03 0.03 41 1005.1
20260507202531 18 320 6.4 14.5 0.00 0.03 0.03 39 1005.1
20260507202008 18 10 6.4 12.9 0.00 0.03 0.03 41 1005.2
20260507201518 18 316 3.2 17.7 0.00 0.03 0.03 41 1005.2
20260507201055 18 209 6.4 17.7 0.00 0.03 0.03 42 1005.4
20260507200531 18 347 6.4 12.9 0.00 0.03 0.03 42 1005.4
20260507200038 18 354 4.8 16.1 0.00 0.03 0.03 40 1005.4
20260507195516 18 314 8.0 14.5 0.00 0.03 0.03 42 1005.4
20260507195102 18 322 4.8 14.5 0.00 0.03 0.03 40 1005.4
20260507194605 18 239 6.4 14.5 0.00 0.03 0.03 40 1005.5
20260507194042 17 242 9.7 17.7 0.00 0.03 0.03 41 1005.5
20260507193520 18 273 9.7 19.3 0.00 0.03 0.03 41 1005.5
20260507193037 18 294 6.4 16.1 0.00 0.03 0.03 42 1005.7
20260507192515 18 314 8.0 16.1 0.00 0.03 0.03 41 1005.5
20260507192057 18 249 8.0 16.1 0.00 0.03 0.03 40 1005.5
20260507191511 18 276 8.0 17.7 0.00 0.03 0.03 40 1005.5
20260507191051 18 291 9.7 17.7 0.00 0.03 0.03 39 1005.6
20260507190531 18 313 6.4 22.5 0.00 0.03 0.03 40 1005.5
20260507190046 18 283 11.3 22.5 0.00 0.03 0.03 40 1005.6
20260507185523 18 4 6.4 17.7 0.00 0.03 0.03 40 1005.4
20260507185001 18 310 8.0 17.7 0.00 0.03 0.03 43 1005.5
20260507184520 18 335 4.8 9.7 0.00 0.03 0.03 41 1005.4
20260507184105 18 298 4.8 9.7 0.00 0.03 0.03 44 1005.6
20260507183538 18 324 3.2 16.1 0.00 0.03 0.03 45 1005.6
20260507183058 18 286 6.4 16.1 0.00 0.03 0.03 42 1005.9
20260507182533 18 266 9.7 16.1 0.00 0.03 0.03 43 1005.8
20260507182012 17 271 4.8 12.9 0.00 0.03 0.03 45 1005.8
20260507181528 17 93 0.0 8.0 0.00 0.03 0.03 48 1005.8
20260507181007 17 131 3.2 8.0 0.00 0.03 0.03 45 1005.7
20260507180552 18 17 1.6 6.4 0.00 0.03 0.03 47 1005.8
20260507180001 17 10 1.6 8.0 0.00 0.03 0.03 48 1005.8
20260507175543 17 293 0.0 14.5 0.00 0.03 0.03 47 1005.9
20260507175021 17 290 8.0 14.5 0.00 0.03 0.03 48 1006.0
20260507174540 17 301 3.2 14.5 0.00 0.03 0.03 48 1006.1
20260507174015 17 338 3.2 12.9 0.00 0.03 0.03 49 1006.1
20260507173558 17 331 6.4 11.3 0.00 0.03 0.03 48 1006.2
20260507173011 17 293 3.2 9.7 0.00 0.03 0.03 49 1006.2
20260507172554 17 270 4.8 12.9 0.00 0.03 0.03 51 1006.3
20260507172031 17 258 3.2 12.9 0.00 0.03 0.03 48 1006.4
20260507171535 17 304 6.4 16.1 0.00 0.03 0.03 51 1006.6
20260507171015 17 342 8.0 16.1 0.00 0.03 0.03 49 1006.6
20260507170556 17 236 3.2 19.3 0.00 0.03 0.03 50 1006.8
20260507170009 16 297 9.7 19.3 0.00 0.03 0.03 51 1006.8
20260507165552 16 245 6.4 16.1 0.00 0.03 0.03 50 1006.8
20260507165028 16 318 11.3 16.1 0.00 0.03 0.03 49 1007.2
20260507164547 16 18 6.4 17.7 0.00 0.03 0.03 52 1007.1
20260507164022 16 238 8.0 17.7 0.00 0.03 0.03 50 1007.2
20260507163502 16 241 1.6 16.1 0.00 0.03 0.03 52 1007.3
20260507163022 16 281 9.7 16.1 0.00 0.03 0.03 53 1007.3
20260507162559 16 264 8.0 19.3 0.00 0.03 0.03 53 1007.3
20260507162037 16 290 11.3 19.3 0.00 0.03 0.03 53 1007.4
20260507161559 15 168 3.2 8.0 0.00 0.03 0.03 54 1007.6
20260507161033 15 268 3.2 14.5 0.00 0.03 0.03 55 1007.6
20260507160511 15 233 6.4 14.5 0.00 0.03 0.03 56 1007.6
20260507160032 15 171 3.2 16.1 0.00 0.03 0.03 56 1007.6
20260507155509 15 293 8.0 16.1 0.00 0.03 0.03 55 1007.8
20260507155047 15 286 4.8 14.5 0.00 0.03 0.03 57 1007.8
20260507154502 15 301 8.0 14.5 0.00 0.03 0.03 56 1007.9
20260507154045 15 295 9.7 14.5 0.00 0.03 0.03 56 1008.0
20260507153522 15 56 3.2 8.0 0.00 0.03 0.03 58 1008.0
20260507153039 14 197 1.6 6.4 0.00 0.03 0.03 60 1008.1
20260507152519 14 297 1.6 6.4 0.00 0.03 0.03 62 1008.1
20260507152059 14 193 1.6 6.4 0.00 0.03 0.03 60 1008.1
20260507151512 13 334 3.2 8.0 0.00 0.03 0.03 64 1008.3
20260507151054 13 312 4.8 9.7 0.00 0.03 0.03 61 1008.4
20260507150533 13 4 4.8 9.7 0.00 0.03 0.03 65 1008.4
20260507150036 12 9 0.0 0.0 0.00 0.03 0.03 66 1008.5
20260507145515 12 180 0.0 0.0 0.00 0.03 0.03 66 1008.8
20260507145056 12 180 0.0 0.0 0.00 0.03 0.03 66 1008.8
20260507144602 12 179 0.0 4.8 0.00 0.03 0.03 66 1008.9
20260507144041 13 179 0.0 4.8 0.00 0.03 0.03 66 1008.9
20260507143518 12 43 0.0 4.8 0.00 0.03 0.03 68 1009.0
20260507143027 12 63 1.6 4.8 0.00 0.03 0.03 69 1009.1
20260507142502 12 39 0.0 0.0 0.00 0.03 0.03 70 1009.2
20260507142043 12 39 0.0 0.0 0.00 0.03 0.03 70 1009.3
20260507141548 12 39 0.0 0.0 0.00 0.03 0.03 69 1009.3
20260507141026 11 39 0.0 0.0 0.00 0.03 0.03 71 1009.3
20260507140505 11 40 0.0 0.0 0.00 0.03 0.03 72 1009.4
20260507140026 11 39 0.0 0.0 0.00 0.03 0.03 71 1009.6
20260507135606 11 39 0.0 0.0 0.00 0.03 0.03 71 1009.6
20260507135042 11 39 0.0 0.0 0.00 0.03 0.03 71 1009.8
20260507134548 11 39 0.0 0.0 0.00 0.03 0.03 72 1009.8
20260507134030 11 39 0.0 0.0 0.00 0.03 0.03 71 1009.8
20260507133508 11 39 0.0 0.0 0.00 0.03 0.03 71 1009.9
20260507133022 11 39 0.0 0.0 0.00 0.03 0.03 74 1010.0
20260507132601 11 39 0.0 0.0 0.00 0.03 0.03 72 1010.0
20260507132039 11 39 0.0 0.0 0.00 0.03 0.03 72 1010.1
20260507131602 11 39 0.0 0.0 0.00 0.03 0.03 73 1010.1
20260507131037 10 39 0.0 0.0 0.00 0.03 0.03 74 1010.2
20260507130513 10 39 0.0 6.4 0.00 0.03 0.03 74 1010.1
20260507130030 10 39 1.6 6.4 0.00 0.03 0.03 74 1010.2
20260507125508 10 39 0.0 0.0 0.00 0.03 0.03 76 1010.2
20260507125052 10 39 0.0 0.0 0.00 0.03 0.03 75 1010.2
20260507124559 10 39 0.0 0.0 0.00 0.03 0.03 75 1010.2
20260507124033 10 14 0.0 0.0 0.00 0.03 0.03 74 1010.2
20260507123514 10 24 0.0 0.0 0.00 0.03 0.03 75 1010.1
20260507123029 10 25 0.0 0.0 0.00 0.03 0.03 75 1010.1
20260507122512 10 31 0.0 0.0 0.00 0.03 0.03 76 1010.0
20260507122049 10 31 0.0 0.0 0.00 0.03 0.03 76 1010.1
20260507121554 10 31 0.0 0.0 0.00 0.03 0.03 76 1010.0
20260507121032 10 31 0.0 0.0 0.00 0.03 0.03 77 1010.1
20260507120510 10 31 0.0 0.0 0.00 0.03 0.03 77 1009.9
20260507120015 10 31 0.0 0.0 0.00 0.03 0.03 78 1009.9
20260507115558 10 31 0.0 0.0 0.00 0.08 0.03 79 1009.9
20260507115036 10 31 0.0 0.0 0.00 0.08 0.03 77 1009.8
20260507114541 10 31 0.0 0.0 0.00 0.08 0.03 78 1009.7
20260507114019 10 31 0.0 0.0 0.00 0.08 0.03 78 1009.5
20260507113602 10 31 0.0 0.0 0.00 0.08 0.03 78 1009.5
20260507113002 10 32 0.0 0.0 0.00 0.08 0.03 78 1009.5
20260507112544 10 32 0.0 0.0 0.00 0.08 0.03 79 1009.4
20260507112026 10 32 0.0 0.0 0.00 0.08 0.03 78 1009.4
20260507111528 10 32 0.0 0.0 0.00 0.08 0.03 79 1009.3
20260507111006 10 32 0.0 0.0 0.00 0.08 0.03 78 1009.2
20260507110550 10 32 0.0 0.0 0.00 0.08 0.03 79 1009.2
20260507110058 10 32 0.0 0.0 0.00 0.08 0.03 80 1009.2
20260507105534 10 20 0.0 0.0 0.00 0.08 0.03 82 1009.3
20260507105011 10 20 0.0 0.0 0.00 0.08 0.03 83 1009.3
20260507104531 10 19 0.0 0.0 0.00 0.08 0.03 86 1009.2
20260507104006 10 84 0.0 0.0 0.00 0.08 0.03 86 1009.1
20260507103549 10 84 0.0 0.0 0.00 0.08 0.03 84 1009.1
20260507103054 10 84 0.0 0.0 0.00 0.08 0.03 84 1008.8
20260507102532 10 84 0.0 0.0 0.00 0.08 0.03 84 1008.8
20260507102012 10 84 0.0 0.0 0.00 0.08 0.03 85 1008.8
20260507101544 10 84 0.0 0.0 0.00 0.08 0.03 85 1008.6
20260507101008 10 84 0.0 0.0 0.00 0.08 0.03 85 1008.6
20260507100553 10 84 0.0 0.0 0.00 0.08 0.03 85 1008.5
20260507100101 10 84 0.0 0.0 0.00 0.08 0.03 85 1008.4
20260507095536 10 84 0.0 0.0 0.00 0.08 0.03 86 1008.3
20260507095017 10 84 0.0 0.0 0.00 0.08 0.03 85 1008.1
20260507094530 10 84 0.0 0.0 0.00 0.08 0.03 85 1008.2
20260507094008 10 84 0.0 0.0 0.00 0.08 0.03 85 1008.4
20260507093552 10 84 0.0 0.0 0.00 0.08 0.03 84 1008.5
20260507093005 10 84 0.0 0.0 0.00 0.08 0.03 85 1008.5
20260507092547 10 84 0.0 0.0 0.00 0.08 0.03 84 1008.4
20260507092025 10 84 0.0 0.0 0.00 0.08 0.03 85 1008.5
20260507091554 10 84 0.0 0.0 0.00 0.08 0.03 85 1008.5
20260507091019 10 84 0.0 0.0 0.00 0.08 0.03 85 1008.4
20260507090601 10 84 0.0 0.0 0.00 0.08 0.03 85 1008.4
20260507090014 10 84 0.0 0.0 0.00 0.08 0.03 83 1008.2
20260507085558 10 84 0.0 0.0 0.00 0.08 0.03 82 1008.0
20260507085036 10 84 0.0 0.0 0.00 0.08 0.03 83 1008.1
20260507084542 10 84 0.0 0.0 0.00 0.08 0.03 83 1008.2
20260507084020 10 84 0.0 0.0 0.00 0.08 0.03 83 1008.5
20260507083603 10 84 0.0 0.0 0.00 0.08 0.03 83 1008.4
20260507083019 10 84 0.0 0.0 0.00 0.08 0.03 84 1008.5
20260507082556 10 84 0.0 0.0 0.00 0.08 0.03 84 1008.5
20260507082035 10 84 0.0 0.0 0.00 0.08 0.03 84 1008.5
20260507081551 10 84 0.0 0.0 0.00 0.08 0.03 82 1008.3
20260507081021 10 84 0.0 0.0 0.00 0.08 0.03 82 1008.2
20260507080604 10 84 0.0 0.0 0.00 0.08 0.03 83 1008.2
20260507080006 10 84 0.0 3.2 0.00 0.08 0.03 84 1008.2
20260507075546 10 84 0.0 4.8 0.00 0.08 0.03 83 1008.5
20260507075024 10 83 0.0 4.8 0.00 0.08 0.03 85 1008.4
20260507074536 10 16 0.0 1.6 0.00 0.08 0.03 84 1008.3
20260507074007 10 16 0.0 3.2 0.00 0.08 0.03 84 1008.2
20260507073550 10 16 0.0 3.2 0.00 0.08 0.03 84 1008.1
20260507073110 10 23 0.0 0.0 0.00 0.08 0.03 83 1008.1
20260507072535 10 23 0.0 0.0 0.00 0.08 0.03 82 1008.0
20260507072015 11 23 0.0 0.0 0.00 0.08 0.03 84 1008.0
20260507071518 10 23 0.0 0.0 0.00 0.08 0.03 82 1008.1
20260507071101 11 23 0.0 0.0 0.00 0.08 0.03 82 1008.0
20260507070539 11 23 0.0 0.0 0.00 0.08 0.03 83 1008.1
20260507070114 11 23 0.0 0.0 0.00 0.08 0.03 84 1008.0
20260507065521 11 23 0.0 0.0 0.00 0.08 0.03 82 1008.0
20260507065104 11 23 0.0 0.0 0.00 0.08 0.03 81 1008.0
20260507064509 11 23 0.0 1.6 0.00 0.08 0.03 82 1008.0
20260507064048 11 23 0.0 3.2 0.00 0.08 0.03 83 1008.1
20260507063527 11 23 0.0 4.8 0.00 0.08 0.03 81 1008.1
20260507063031 11 275 0.0 3.2 0.00 0.08 0.03 83 1008.1
20260507062515 10 275 0.0 3.2 0.00 0.08 0.03 83 1008.2
20260507062057 10 274 0.0 3.2 0.00 0.08 0.03 85 1008.3
20260507061559 10 29 0.0 0.0 0.00 0.08 0.03 85 1008.2
20260507061036 10 30 0.0 0.0 0.00 0.08 0.03 86 1008.4
20260507060515 10 29 0.0 0.0 0.00 0.08 0.03 86 1008.5
20260507060032 10 29 0.0 0.0 0.00 0.08 0.03 86 1008.6
20260507055510 10 29 0.0 0.0 0.00 0.08 0.03 86 1008.6
20260507055054 10 29 0.0 0.0 0.00 0.08 0.03 86 1008.6
20260507054617 10 29 0.0 0.0 0.00 0.08 0.03 86 1008.7
20260507054033 10 29 0.0 0.0 0.00 0.08 0.03 86 1008.7
20260507053512 10 30 0.0 0.0 0.00 0.08 0.03 86 1008.6
20260507053029 10 29 0.0 0.0 0.00 0.08 0.03 86 1008.7
20260507052506 10 29 0.0 0.0 0.00 0.08 0.03 86 1008.6
20260507052049 11 29 0.0 0.0 0.00 0.08 0.03 86 1008.5
20260507051555 11 29 0.0 0.0 0.03 0.08 0.03 86 1008.5
20260507051031 11 29 0.0 0.0 0.03 0.08 0.03 86 1008.5
20260507050510 11 29 0.0 1.6 0.03 0.08 0.03 86 1008.4
20260507050032 11 29 0.0 3.2 0.03 0.08 0.03 86 1008.4
20260507045504 11 29 0.0 3.2 0.03 0.08 0.03 86 1008.5
20260507045048 11 29 0.0 3.2 0.03 0.08 0.03 87 1008.3
20260507044551 11 29 0.0 3.2 0.03 0.08 0.03 86 1008.2
20260507044029 11 29 0.0 1.6 0.03 0.08 0.03 86 1008.1
20260507043508 11 29 0.0 3.2 0.03 0.08 0.03 86 1008.0
20260507043014 11 29 0.0 3.2 0.03 0.08 0.03 86 1008.0
20260507042556 11 29 0.0 3.2 0.03 0.08 0.03 86 1008.0
20260507042034 11 29 0.0 3.2 0.03 0.08 0.03 86 1008.0
20260507041539 12 29 0.0 4.8 0.00 0.05 0.00 86 1008.0
20260507041017 12 30 1.6 4.8 0.00 0.05 0.00 86 1008.0
20260507040603 12 29 1.6 8.0 0.00 0.05 0.00 85 1008.0
20260507040013 12 39 3.2 8.0 0.00 0.05 0.00 84 1008.0
20260507035555 12 21 4.8 8.0 0.00 0.05 0.05 83 1007.8
20260507035033 12 53 0.0 8.0 0.00 0.05 0.05 83 1007.2
20260507034541 13 43 0.0 0.0 0.00 0.05 0.05 83 1007.4
20260507034016 13 56 0.0 0.0 0.00 0.05 0.05 83 1007.7
20260507033559 13 54 0.0 0.0 0.00 0.05 0.05 83 1008.0
20260507033106 13 50 0.0 0.0 0.00 0.05 0.05 83 1008.2
20260507032542 13 141 0.0 0.0 0.00 0.05 0.05 83 1008.0
20260507032022 13 153 0.0 0.0 0.00 0.05 0.05 83 1007.4
20260507031541 13 153 0.0 0.0 0.00 0.05 0.05 83 1007.4
20260507031017 13 55 0.0 0.0 0.00 0.05 0.05 83 1007.4
20260507030600 13 37 0.0 0.0 0.00 0.05 0.05 82 1007.8
20260507030012 13 37 0.0 0.0 0.00 0.05 0.05 82 1007.9
20260507025552 13 37 0.0 0.0 0.00 0.05 0.05 83 1007.4
20260507025030 13 32 0.0 0.0 0.00 0.05 0.05 83 1007.7
20260507024547 13 32 0.0 0.0 0.00 0.05 0.05 82 1008.0
20260507024026 13 32 0.0 0.0 0.00 0.05 0.05 82 1008.0
20260507023503 13 32 0.0 0.0 0.00 0.05 0.05 82 1007.7
20260507023020 13 32 0.0 0.0 0.00 0.05 0.05 82 1007.2
20260507022602 13 32 0.0 0.0 0.00 0.05 0.05 82 1007.5
20260507022040 13 32 0.0 0.0 0.00 0.05 0.05 82 1007.3
20260507021615 14 32 0.0 0.0 0.00 0.05 0.05 82 1007.2
20260507021034 14 32 0.0 0.0 0.00 0.05 0.05 81 1007.3
20260507020512 14 32 0.0 0.0 0.00 0.05 0.05 81 1007.1
20260507020027 14 32 0.0 0.0 0.00 0.05 0.05 81 1007.3
20260507015504 14 32 0.0 0.0 0.00 0.05 0.05 81 1007.2
20260507015050 14 31 0.0 0.0 0.00 0.05 0.05 81 1007.2
20260507014611 14 45 0.0 0.0 0.00 0.05 0.05 81 1007.1
20260507014030 14 52 0.0 0.0 0.00 0.05 0.05 81 1006.8
20260507013508 15 21 0.0 0.0 0.00 0.05 0.05 81 1006.5
20260507013025 15 21 0.0 0.0 0.00 0.05 0.05 81 1006.8
20260507012507 15 21 0.0 0.0 0.00 0.05 0.05 82 1006.6
20260507012047 15 21 0.0 0.0 0.00 0.05 0.05 81 1006.6
20260507011552 15 21 0.0 0.0 0.00 0.05 0.05 81 1006.6
20260507011030 15 21 0.0 0.0 0.00 0.05 0.05 82 1006.6
20260507010509 15 21 0.0 0.0 0.00 0.05 0.05 82 1006.7
20260507010026 15 50 0.0 0.0 0.00 0.05 0.05 82 1006.4
20260507005506 15 50 0.0 4.8 0.00 0.05 0.05 81 1006.3
20260507005046 15 50 0.0 4.8 0.00 0.05 0.05 81 1006.1
20260507004553 15 50 1.6 4.8 0.00 0.05 0.05 81 1006.1
20260507004031 15 354 0.0 3.2 0.00 0.05 0.05 81 1006.0
20260507003511 15 354 0.0 3.2 0.00 0.05 0.05 81 1006.1
20260507003026 16 354 0.0 3.2 0.00 0.05 0.05 80 1006.0
20260507002505 16 354 1.6 4.8 0.00 0.05 0.05 80 1006.2
20260507002047 16 354 0.0 6.4 0.00 0.05 0.05 81 1006.6
20260507001555 16 318 1.6 6.4 0.00 0.05 0.05 80 1006.7
20260507001032 16 39 1.6 4.8 0.00 0.05 0.05 80 1006.6
20260507000510 16 39 3.2 6.4 0.00 0.05 0.05 80 1006.4
20260507000014 16 30 1.6 4.8 0.00 0.05 0.05 80 1006.2
20260506235557 16 30 0.0 4.8 0.00 0.05 0.05 80 1006.3
20260506235036 16 30 1.6 4.8 0.00 0.05 0.05 79 1006.1
20260506234539 16 29 1.6 4.8 0.00 0.05 0.05 79 1006.2
20260506234018 17 27 0.0 3.2 0.00 0.05 0.05 79 1006.3
20260506233600 17 287 0.0 1.6 0.00 0.05 0.05 78 1006.1
20260506233001 17 287 0.0 1.6 0.00 0.05 0.05 77 1006.1
20260506232543 17 287 0.0 1.6 0.00 0.05 0.05 76 1006.0
20260506232021 17 287 0.0 3.2 0.00 0.05 0.05 76 1006.0